Location: Plainartige
(45.6866°N, 1.7993°E)
Time: 14:41:39
(UTC+00:00)

X-37B - Pass Details

Date: 31 January 2022
Orbit: 329 x 342 km, 45.0° (Epoch: 18 May)

Event Time Altitude Azimuth Distance (km) Brightness Sun altitude
Rises 18:55:07 0° 266° (W) 2,118 5.9 -20.7°
Reaches altitude 10° 18:57:07 10° 265° (W) 1,277 4.4 -21.0°
Enters shadow 18:59:07 40° 260° (W) 510 1.6 -21.4°
